Time,TemperatureF,DewpointF,PressureIn,WindDirection,WindDirectionDegrees,WindSpeedMPH,WindSpeedGustMPH,Humidity,HourlyPrecipIn,Conditions,Clouds,dailyrainin,SoftwareType,DateUTC
2013-06-10 00:03:00,69.5,29.0,29.88,WSW,250,9.0,9.0,22,0.00,CLR,,0.00,WeatherDisplay:10.37,2013-06-10 07:03:00,
2013-06-10 00:08:00,69.5,29.0,29.88,WSW,248,6.9,6.9,22,0.00,CLR,,0.00,WeatherDisplay:10.37,2013-06-10 07:08:00,
2013-06-10 00:13:00,69.4,28.9,29.88,WSW,242,6.9,6.9,22,0.00,CLR,,0.00,WeatherDisplay:10.37,2013-06-10 07:13:00,
2013-06-10 00:18:00,69.1,28.6,29.87,WSW,239,6.9,6.9,22,0.00,CLR,,0.00,WeatherDisplay:10.37,2013-06-10 07:18:00,
2013-06-10 00:23:00,68.8,28.4,29.87,WSW,248,7.0,7.0,22,0.00,CLR,,0.00,WeatherDisplay:10.37,2013-06-10 07:23:00,
2013-06-10 00:28:00,68.8,27.2,29.87,WSW,238,5.8,5.8,21,0.00,CLR,,0.00,WeatherDisplay:10.37,2013-06-10 07:28:00,
2013-06-10 00:33:00,68.5,27.0,29.87,WSW,246,5.0,5.0,21,0.00,CLR,,0.00,WeatherDisplay:10.37,2013-06-10 07:33:00,
2013-06-10 00:38:00,68.0,27.7,29.87,WSW,246,3.5,3.5,22,0.00,CLR,,0.00,WeatherDisplay:10.37,2013-06-10 07:38:00,
2013-06-10 00:43:00,67.4,27.2,29.87,WSW,246,3.5,3.5,22,0.00,CLR,,0.00,WeatherDisplay:10.37,2013-06-10 07:43:00,
2013-06-10 00:48:00,67.3,27.1,29.87,WSW,246,3.5,3.5,22,0.00,CLR,,0.00,WeatherDisplay:10.37,2013-06-10 07:48:00,
2013-06-10 00:53:00,67.6,27.4,29.87,WSW,246,3.5,3.5,22,0.00,CLR,,0.00,WeatherDisplay:10.37,2013-06-10 07:53:00,
2013-06-10 00:58:00,67.3,27.1,29.87,WSW,246,3.5,3.5,22,0.00,CLR,,0.00,WeatherDisplay:10.37,2013-06-10 07:58:00,
2013-06-10 01:03:00,66.9,26.8,29.86,WSW,246,3.5,3.5,22,0.00,CLR,,0.00,WeatherDisplay:10.37,2013-06-10 08:03:00,
2013-06-10 01:08:00,66.2,26.2,29.86,WSW,246,3.5,3.5,22,0.00,CLR,,0.00,WeatherDisplay:10.37,2013-06-10 08:08:00,
2013-06-10 01:13:00,65.9,25.9,29.86,WSW,246,5.0,5.0,22,0.00,CLR,,0.00,WeatherDisplay:10.37,2013-06-10 08:13:00,
2013-06-10 01:18:00,66.2,25.1,29.86,SSW,199,7.0,7.0,21,0.00,CLR,,0.00,WeatherDisplay:10.37,2013-06-10 08:18:00,
2013-06-10 01:23:00,67.1,25.8,29.86,SW,226,11.5,11.5,21,0.00,CLR,,0.00,WeatherDisplay:10.37,2013-06-10 08:23:00,
2013-06-10 01:28:00,67.9,25.3,29.86,WSW,240,11.5,11.5,20,0.00,CLR,,0.00,WeatherDisplay:10.37,2013-06-10 08:28:00,
2013-06-10 01:33:00,68.2,25.6,29.86,SSW,198,10.4,10.4,20,0.00,CLR,,0.00,WeatherDisplay:10.37,2013-06-10 08:33:00,
2013-06-10 01:38:00,68.1,25.5,29.86,SSW,198,7.0,7.0,20,0.00,CLR,,0.00,WeatherDisplay:10.37,2013-06-10 08:38:00,
2013-06-10 01:43:00,67.7,26.3,29.86,SSW,198,5.8,5.8,21,0.00,CLR,,0.00,WeatherDisplay:10.37,2013-06-10 08:43:00,
2013-06-10 01:48:00,67.2,25.9,29.86,SSW,198,4.6,4.6,21,0.00,CLR,,0.00,WeatherDisplay:10.37,2013-06-10 08:48:00,
2013-06-10 01:53:00,66.5,25.3,29.85,SSW,198,3.5,3.5,21,0.00,CLR,,0.00,WeatherDisplay:10.37,2013-06-10 08:53:00,
2013-06-10 01:58:00,65.9,25.9,29.86,SSW,198,3.5,3.5,22,0.00,CLR,,0.00,WeatherDisplay:10.37,2013-06-10 08:58:00,
2013-06-10 02:03:00,65.2,25.4,29.85,SSW,198,6.0,6.0,22,0.00,CLR,,0.00,WeatherDisplay:10.37,2013-06-10 09:03:00,
2013-06-10 02:08:00,64.8,26.1,29.85,SSW,200,11.5,11.5,23,0.00,CLR,,0.00,WeatherDisplay:10.37,2013-06-10 09:08:00,
2013-06-10 02:13:00,65.5,26.7,29.85,SSW,201,6.9,6.9,23,0.00,CLR,,0.00,WeatherDisplay:10.37,2013-06-10 09:13:00,
2013-06-10 02:18:00,65.7,25.8,29.85,SSW,200,4.6,4.6,22,0.00,CLR,,0.00,WeatherDisplay:10.37,2013-06-10 09:18:00,
2013-06-10 02:23:00,65.3,26.5,29.85,SSW,201,5.0,5.0,23,0.00,CLR,,0.00,WeatherDisplay:10.37,2013-06-10 09:23:00,
2013-06-10 02:28:00,64.8,26.1,29.85,SSW,200,7.0,7.0,23,0.00,CLR,,0.00,WeatherDisplay:10.37,2013-06-10 09:28:00,
2013-06-10 02:33:00,64.8,27.1,29.85,SSW,201,6.9,6.9,24,0.00,CLR,,0.00,WeatherDisplay:10.37,2013-06-10 09:33:00,
2013-06-10 02:38:00,65.0,27.3,29.85,SSW,201,5.8,5.8,24,0.00,CLR,,0.00,WeatherDisplay:10.37,2013-06-10 09:38:00,
2013-06-10 02:43:00,65.2,26.4,29.85,SSW,200,4.6,4.6,23,0.00,CLR,,0.00,WeatherDisplay:10.37,2013-06-10 09:43:00,
2013-06-10 02:48:00,65.2,27.5,29.85,SSW,201,5.8,5.8,24,0.00,CLR,,0.00,WeatherDisplay:10.37,2013-06-10 09:48:00,
2013-06-10 02:53:00,65.0,27.3,29.85,SSW,201,6.0,6.0,24,0.00,CLR,,0.00,WeatherDisplay:10.37,2013-06-10 09:53:00,
2013-06-10 02:58:00,64.9,27.2,29.85,SSW,200,6.9,6.9,24,0.00,CLR,,0.00,WeatherDisplay:10.37,2013-06-10 09:58:00,
2013-06-10 03:03:00,65.5,27.7,29.85,SSW,210,8.1,8.1,24,0.00,CLR,,0.00,WeatherDisplay:10.37,2013-06-10 10:03:00,
2013-06-10 03:08:00,66.2,27.3,29.85,West,265,7.0,7.0,23,0.00,CLR,,0.00,WeatherDisplay:10.37,2013-06-10 10:08:00,
2013-06-10 03:13:00,66.8,27.8,29.85,WSW,252,6.9,6.9,23,0.00,CLR,,0.00,WeatherDisplay:10.37,2013-06-10 10:13:00,
2013-06-10 03:18:00,67.0,27.9,29.85,West,268,7.0,7.0,23,0.00,CLR,,0.00,WeatherDisplay:10.37,2013-06-10 10:18:00,
2013-06-10 03:23:00,67.7,28.5,29.85,West,276,9.2,9.2,23,0.00,CLR,,0.00,WeatherDisplay:10.37,2013-06-10 10:23:00,
2013-06-10 03:28:00,68.3,28.0,29.85,West,267,10.4,10.4,22,0.00,CLR,,0.00,WeatherDisplay:10.37,2013-06-10 10:28:00,
2013-06-10 03:33:00,68.4,28.0,29.85,West,261,10.4,10.4,22,0.00,CLR,,0.00,WeatherDisplay:10.37,2013-06-10 10:33:00,
2013-06-10 03:38:00,68.2,27.9,29.85,WSW,245,10.4,10.4,22,0.00,CLR,,0.00,WeatherDisplay:10.37,2013-06-10 10:38:00,
2013-06-10 03:43:00,68.0,27.7,29.85,WSW,256,9.2,9.2,22,0.00,CLR,,0.00,WeatherDisplay:10.37,2013-06-10 10:43:00,
2013-06-10 03:48:00,68.0,27.7,29.85,WNW,284,6.0,6.0,22,0.00,CLR,,0.00,WeatherDisplay:10.37,2013-06-10 10:48:00,
2013-06-10 03:53:00,68.0,27.7,29.85,WNW,284,6.9,6.9,22,0.00,CLR,,0.00,WeatherDisplay:10.37,2013-06-10 10:53:00,
2013-06-10 03:58:00,67.6,28.5,29.85,West,268,5.8,5.8,23,0.00,CLR,,0.00,WeatherDisplay:10.37,2013-06-10 10:58:00,
2013-06-10 04:03:00,66.7,27.7,29.85,West,275,11.5,11.5,23,0.00,CLR,,0.00,WeatherDisplay:10.37,2013-06-10 11:03:00,
2013-06-10 04:08:00,66.2,27.3,29.85,WSW,241,11.5,11.5,23,0.00,CLR,,0.00,WeatherDisplay:10.37,2013-06-10 11:08:00,
2013-06-10 04:13:00,66.1,27.2,29.85,WSW,251,17.3,17.3,23,0.00,CLR,,0.00,WeatherDisplay:10.37,2013-06-10 11:13:00,
2013-06-10 04:18:00,66.8,27.8,29.85,WSW,244,10.4,10.4,23,0.00,CLR,,0.00,WeatherDisplay:10.37,2013-06-10 11:18:00,
2013-06-10 04:23:00,66.7,27.7,29.85,WSW,240,11.5,11.5,23,0.00,CLR,,0.00,WeatherDisplay:10.37,2013-06-10 11:23:00,
2013-06-10 04:28:00,66.7,27.7,29.85,West,268,13.8,13.8,23,0.00,CLR,,0.00,WeatherDisplay:10.37,2013-06-10 11:28:00,
2013-06-10 04:33:00,66.2,27.3,29.85,WSW,253,15.0,15.0,23,0.00,CLR,,0.00,WeatherDisplay:10.37,2013-06-10 11:33:00,
2013-06-10 04:38:00,65.6,26.8,29.85,West,259,12.7,12.7,23,0.00,CLR,,0.00,WeatherDisplay:10.37,2013-06-10 11:38:00,
2013-06-10 04:43:00,65.5,25.6,29.85,West,261,16.1,16.1,22,0.00,CLR,,0.00,WeatherDisplay:10.37,2013-06-10 11:43:00,
2013-06-10 04:48:00,65.0,26.3,29.85,WNW,284,11.5,11.5,23,0.00,CLR,,0.00,WeatherDisplay:10.37,2013-06-10 11:48:00,
2013-06-10 04:53:00,64.5,26.9,29.85,West,269,11.5,11.5,24,0.00,CLR,,0.00,WeatherDisplay:10.37,2013-06-10 11:53:00,
2013-06-10 04:58:00,63.9,26.4,29.85,WNW,287,12.0,12.0,24,0.00,CLR,,0.00,WeatherDisplay:10.37,2013-06-10 11:58:00,
2013-06-10 05:03:00,63.8,26.3,29.86,WNW,282,11.5,11.5,24,0.00,CLR,,0.00,WeatherDisplay:10.37,2013-06-10 12:03:00,
2013-06-10 05:08:00,63.7,26.2,29.86,West,273,16.0,16.0,24,0.00,CLR,,0.00,WeatherDisplay:10.37,2013-06-10 12:08:00,
2013-06-10 05:13:00,64.5,26.9,29.86,WNW,287,13.8,13.8,24,0.00,CLR,,0.00,WeatherDisplay:10.37,2013-06-10 12:13:00,
2013-06-10 05:18:00,64.4,26.8,29.85,WNW,288,12.7,12.7,24,0.00,CLR,,0.00,WeatherDisplay:10.37,2013-06-10 12:18:00,
2013-06-10 05:23:00,64.7,27.0,29.85,WNW,286,12.7,12.7,24,0.00,CLR,,0.00,WeatherDisplay:10.37,2013-06-10 12:23:00,
2013-06-10 05:28:00,64.8,27.1,29.85,WNW,293,15.0,15.0,24,0.00,CLR,,0.00,WeatherDisplay:10.37,2013-06-10 12:28:00,
2013-06-10 05:33:00,65.0,28.3,29.86,WNW,299,16.1,16.1,25,0.00,CLR,,0.00,WeatherDisplay:10.37,2013-06-10 12:33:00,
2013-06-10 05:38:00,64.9,29.2,29.85,WNW,296,17.3,17.3,26,0.00,CLR,,0.00,WeatherDisplay:10.37,2013-06-10 12:38:00,
2013-06-10 05:43:00,65.1,30.3,29.85,WNW,294,18.4,18.4,27,0.00,CLR,,0.00,WeatherDisplay:10.37,2013-06-10 12:43:00,
2013-06-10 05:48:00,65.3,30.4,29.86,WNW,290,18.4,18.4,27,0.00,CLR,,0.00,WeatherDisplay:10.37,2013-06-10 12:48:00,
2013-06-10 05:53:00,65.6,31.6,29.86,WNW,285,23.0,23.0,28,0.00,CLR,,0.00,WeatherDisplay:10.37,2013-06-10 12:53:00,
2013-06-10 05:58:00,65.4,31.4,29.86,WNW,283,19.6,19.6,28,0.00,CLR,,0.00,WeatherDisplay:10.37,2013-06-10 12:58:00,
2013-06-10 06:03:00,65.7,32.5,29.86,WNW,293,23.0,23.0,29,0.00,CLR,,0.00,WeatherDisplay:10.37,2013-06-10 13:03:00,
2013-06-10 06:08:00,66.1,33.7,29.87,West,275,20.7,20.7,30,0.00,CLR,,0.00,WeatherDisplay:10.37,2013-06-10 13:08:00,
2013-06-10 06:13:00,65.9,35.2,29.87,West,281,23.0,23.0,32,0.00,CLR,,0.00,WeatherDisplay:10.37,2013-06-10 13:13:00,
2013-06-10 06:18:00,65.6,36.5,29.87,West,265,18.4,18.4,34,0.00,CLR,,0.00,WeatherDisplay:10.37,2013-06-10 13:18:00,
2013-06-10 06:23:00,65.1,38.2,29.88,WNW,283,20.0,20.0,37,0.00,CLR,,0.00,WeatherDisplay:10.37,2013-06-10 13:23:00,
2013-06-10 06:28:00,64.6,38.4,29.88,West,270,20.7,20.7,38,0.00,CLR,,0.00,WeatherDisplay:10.37,2013-06-10 13:28:00,
2013-06-10 06:33:00,64.1,39.9,29.88,West,264,19.6,19.6,41,0.00,CLR,,0.00,WeatherDisplay:10.37,2013-06-10 13:33:00,
2013-06-10 06:38:00,63.5,41.2,29.89,West,269,19.6,19.6,44,0.00,CLR,,0.00,WeatherDisplay:10.37,2013-06-10 13:38:00,
2013-06-10 06:43:00,62.9,42.4,29.89,West,265,22.0,22.0,47,0.00,CLR,,0.00,WeatherDisplay:10.37,2013-06-10 13:43:00,
2013-06-10 06:48:00,62.4,42.4,29.89,West,269,19.6,19.6,48,0.00,CLR,,0.00,WeatherDisplay:10.37,2013-06-10 13:48:00,
2013-06-10 06:53:00,62.3,42.3,29.89,WSW,240,17.3,17.3,48,0.00,CLR,,0.00,WeatherDisplay:10.37,2013-06-10 13:53:00,
2013-06-10 06:58:00,62.7,41.6,29.89,WSW,250,20.0,20.0,46,0.00,CLR,,0.00,WeatherDisplay:10.37,2013-06-10 13:58:00,
2013-06-10 07:03:00,63.2,41.5,29.89,West,265,22.0,22.0,45,0.00,CLR,,0.00,WeatherDisplay:10.37,2013-06-10 14:03:00,
2013-06-10 07:08:00,63.5,41.2,29.89,WSW,256,24.2,24.2,44,0.00,CLR,,0.00,WeatherDisplay:10.37,2013-06-10 14:08:00,
2013-06-10 07:13:00,64.1,40.5,29.89,West,276,17.3,17.3,42,0.00,CLR,,0.00,WeatherDisplay:10.37,2013-06-10 14:13:00,
2013-06-10 07:18:00,64.3,41.9,29.89,West,267,19.0,19.0,44,0.00,CLR,,0.00,WeatherDisplay:10.37,2013-06-10 14:18:00,
2013-06-10 07:23:00,64.3,42.5,29.89,West,271,24.2,24.2,45,0.00,CLR,,0.00,WeatherDisplay:10.37,2013-06-10 14:23:00,
2013-06-10 07:28:00,64.0,43.4,29.90,SW,225,25.3,25.3,47,0.00,CLR,,0.00,WeatherDisplay:10.37,2013-06-10 14:28:00,
2013-06-10 07:33:00,63.7,43.6,29.90,WSW,246,22.0,22.0,48,0.00,CLR,,0.00,WeatherDisplay:10.37,2013-06-10 14:33:00,
2013-06-10 07:38:00,63.2,43.7,29.90,SW,236,23.0,23.0,49,0.00,CLR,,0.00,WeatherDisplay:10.37,2013-06-10 14:38:00,
2013-06-10 07:43:00,63.1,44.7,29.91,SW,234,25.0,25.0,51,0.00,CLR,,0.00,WeatherDisplay:10.37,2013-06-10 14:43:00,
2013-06-10 07:48:00,62.3,45.4,29.91,SW,232,21.9,21.9,54,0.00,CLR,,0.00,WeatherDisplay:10.37,2013-06-10 14:48:00,
2013-06-10 07:53:00,62.0,45.6,29.91,SW,218,25.3,25.3,55,0.00,CLR,,0.00,WeatherDisplay:10.37,2013-06-10 14:53:00,
2013-06-10 07:58:00,62.1,45.2,29.91,WSW,246,19.6,19.6,54,0.00,CLR,,0.00,WeatherDisplay:10.37,2013-06-10 14:58:00,
2013-06-10 08:03:00,62.7,45.3,29.91,WSW,242,19.6,19.6,53,0.00,CLR,,0.00,WeatherDisplay:10.37,2013-06-10 15:03:00,
2013-06-10 08:08:00,63.7,45.2,29.91,SSW,205,19.0,19.0,51,0.00,CLR,,0.00,WeatherDisplay:10.37,2013-06-10 15:08:00,
2013-06-10 08:13:00,64.0,45.0,29.91,WSW,250,21.9,21.9,50,0.00,CLR,,0.00,WeatherDisplay:10.37,2013-06-10 15:13:00,
2013-06-10 08:18:00,64.1,45.1,29.91,WSW,240,21.9,21.9,50,0.00,CLR,,0.00,WeatherDisplay:10.37,2013-06-10 15:18:00,
2013-06-10 08:23:00,64.6,45.0,29.91,SW,230,19.6,19.6,49,0.00,CLR,,0.00,WeatherDisplay:10.37,2013-06-10 15:23:00,
2013-06-10 08:28:00,64.6,45.0,29.91,WSW,242,19.6,19.6,49,0.00,CLR,,0.00,WeatherDisplay:10.37,2013-06-10 15:28:00,
2013-06-10 08:33:00,65.3,45.1,29.91,West,261,20.7,20.7,48,0.00,CLR,,0.00,WeatherDisplay:10.37,2013-06-10 15:33:00,
2013-06-10 08:38:00,66.1,44.7,29.92,WSW,250,19.6,19.6,46,0.00,CLR,,0.00,WeatherDisplay:10.37,2013-06-10 15:38:00,
2013-06-10 08:43:00,66.5,45.1,29.91,WNW,288,18.4,18.4,46,0.00,CLR,,0.00,WeatherDisplay:10.37,2013-06-10 15:43:00,
2013-06-10 08:48:00,67.0,44.4,29.91,West,264,16.1,16.1,44,0.00,CLR,,0.00,WeatherDisplay:10.37,2013-06-10 15:48:00,
2013-06-10 08:53:00,67.6,44.9,29.91,WSW,241,18.4,18.4,44,0.00,CLR,,0.00,WeatherDisplay:10.37,2013-06-10 15:53:00,
2013-06-10 08:58:00,68.3,44.9,29.92,WSW,245,17.3,17.3,43,0.00,CLR,,0.00,WeatherDisplay:10.37,2013-06-10 15:58:00,
2013-06-10 09:03:00,68.2,44.8,29.91,WSW,246,16.1,16.1,43,0.00,CLR,,0.00,WeatherDisplay:10.37,2013-06-10 16:03:00,
2013-06-10 09:08:00,68.5,44.5,29.91,WSW,249,17.3,17.3,42,0.00,CLR,,0.00,WeatherDisplay:10.37,2013-06-10 16:08:00,
2013-06-10 09:13:00,68.6,45.2,29.91,West,260,17.0,17.0,43,0.00,CLR,,0.00,WeatherDisplay:10.37,2013-06-10 16:13:00,
2013-06-10 09:18:00,68.6,45.8,29.91,WSW,252,15.0,15.0,44,0.00,CLR,,0.00,WeatherDisplay:10.37,2013-06-10 16:18:00,
2013-06-10 09:23:00,68.8,45.4,29.91,WSW,250,14.0,14.0,43,0.00,CLR,,0.00,WeatherDisplay:10.37,2013-06-10 16:23:00,
2013-06-10 09:28:00,69.1,45.7,29.91,WSW,240,12.7,12.7,43,0.00,CLR,,0.00,WeatherDisplay:10.37,2013-06-10 16:28:00,
2013-06-10 09:33:00,69.6,45.5,29.92,WSW,245,15.0,15.0,42,0.00,CLR,,0.00,WeatherDisplay:10.37,2013-06-10 16:33:00,
2013-06-10 09:38:00,69.8,45.7,29.92,SW,230,19.6,19.6,42,0.00,CLR,,0.00,WeatherDisplay:10.37,2013-06-10 16:38:00,
2013-06-10 09:43:00,70.3,45.5,29.91,SW,226,18.4,18.4,41,0.00,CLR,,0.00,WeatherDisplay:10.37,2013-06-10 16:43:00,
2013-06-10 09:48:00,70.8,45.9,29.91,WSW,245,22.0,22.0,41,0.00,CLR,,0.00,WeatherDisplay:10.37,2013-06-10 16:48:00,
2013-06-10 09:53:00,71.3,45.1,29.91,West,259,19.6,19.6,39,0.00,CLR,,0.00,WeatherDisplay:10.37,2013-06-10 16:53:00,
2013-06-10 09:58:00,71.6,46.0,29.91,SW,230,23.0,23.0,40,0.00,CLR,,0.00,WeatherDisplay:10.37,2013-06-10 16:58:00,
2013-06-10 10:03:00,72.1,45.8,29.91,WSW,239,20.7,20.7,39,0.00,CLR,,0.00,WeatherDisplay:10.37,2013-06-10 17:03:00,
2013-06-10 10:08:00,72.4,45.4,29.91,SW,229,21.9,21.9,38,0.00,CLR,,0.00,WeatherDisplay:10.37,2013-06-10 17:08:00,
2013-06-10 10:13:00,72.8,45.7,29.91,SW,223,20.7,20.7,38,0.00,CLR,,0.00,WeatherDisplay:10.37,2013-06-10 17:13:00,
2013-06-10 10:18:00,72.9,45.1,29.91,WSW,244,25.3,25.3,37,0.00,CLR,,0.00,WeatherDisplay:10.37,2013-06-10 17:18:00,
2013-06-10 10:23:00,73.0,45.2,29.91,SW,221,20.7,20.7,37,0.00,CLR,,0.00,WeatherDisplay:10.37,2013-06-10 17:23:00,
2013-06-10 10:28:00,73.3,45.4,29.91,SW,229,19.6,19.6,37,0.00,CLR,,0.00,WeatherDisplay:10.37,2013-06-10 17:28:00,
2013-06-10 10:33:00,74.3,45.6,29.91,WSW,246,25.3,25.3,36,0.00,CLR,,0.00,WeatherDisplay:10.37,2013-06-10 17:33:00,
2013-06-10 10:38:00,74.3,45.6,29.91,SW,236,20.0,20.0,36,0.00,CLR,,0.00,WeatherDisplay:10.37,2013-06-10 17:38:00,
2013-06-10 10:43:00,74.9,45.4,29.92,WSW,239,22.0,22.0,35,0.00,CLR,,0.00,WeatherDisplay:10.37,2013-06-10 17:43:00,
2013-06-10 10:48:00,74.9,44.6,29.92,SW,221,21.0,21.0,34,0.00,CLR,,0.00,WeatherDisplay:10.37,2013-06-10 17:48:00,
2013-06-10 10:53:00,75.3,43.4,29.92,SW,233,19.6,19.6,32,0.00,CLR,,0.00,WeatherDisplay:10.37,2013-06-10 17:53:00,
2013-06-10 10:58:00,75.3,43.4,29.92,SSW,209,19.6,19.6,32,0.00,CLR,,0.00,WeatherDisplay:10.37,2013-06-10 17:58:00,
2013-06-10 11:03:00,75.5,43.6,29.92,South,184,21.9,21.9,32,0.00,CLR,,0.00,WeatherDisplay:10.37,2013-06-10 18:03:00,
2013-06-10 11:08:00,75.5,42.7,29.91,WSW,242,21.9,21.9,31,0.00,CLR,,0.00,WeatherDisplay:10.37,2013-06-10 18:08:00,
2013-06-10 11:13:00,76.1,44.1,29.91,SSW,207,20.7,20.7,32,0.00,CLR,,0.00,WeatherDisplay:10.37,2013-06-10 18:13:00,
2013-06-10 11:18:00,76.4,44.4,29.91,WSW,240,21.0,21.0,32,0.00,CLR,,0.00,WeatherDisplay:10.37,2013-06-10 18:18:00,
2013-06-10 11:23:00,76.6,43.7,29.92,WSW,238,19.6,19.6,31,0.00,CLR,,0.00,WeatherDisplay:10.37,2013-06-10 18:23:00,
2013-06-10 11:28:00,76.9,44.8,29.91,SW,215,20.7,20.7,32,0.00,CLR,,0.00,WeatherDisplay:10.37,2013-06-10 18:28:00,
2013-06-10 11:33:00,77.2,45.0,29.91,SW,224,24.2,24.2,32,0.00,CLR,,0.00,WeatherDisplay:10.37,2013-06-10 18:33:00,
2013-06-10 11:38:00,76.4,44.4,29.91,SSW,200,19.6,19.6,32,0.00,CLR,,0.00,WeatherDisplay:10.37,2013-06-10 18:38:00,
2013-06-10 11:43:00,76.7,43.8,29.91,SW,234,23.0,23.0,31,0.00,CLR,,0.00,WeatherDisplay:10.37,2013-06-10 18:43:00,
2013-06-10 11:48:00,77.5,44.5,29.91,WSW,254,19.6,19.6,31,0.00,CLR,,0.00,WeatherDisplay:10.37,2013-06-10 18:48:00,
2013-06-10 11:53:00,77.8,44.7,29.91,SW,215,21.9,21.9,31,0.00,CLR,,0.00,WeatherDisplay:10.37,2013-06-10 18:53:00,
2013-06-10 11:58:00,77.7,43.8,29.91,WSW,240,23.0,23.0,30,0.00,CLR,,0.00,WeatherDisplay:10.37,2013-06-10 18:58:00,
2013-06-10 12:03:00,77.7,43.8,29.91,SSW,211,20.7,20.7,30,0.00,CLR,,0.00,WeatherDisplay:10.37,2013-06-10 19:03:00,
2013-06-10 12:08:00,78.0,44.0,29.91,SSW,213,25.3,25.3,30,0.00,CLR,,0.00,WeatherDisplay:10.37,2013-06-10 19:08:00,
2013-06-10 12:13:00,77.4,42.6,29.91,SW,215,23.0,23.0,29,0.00,CLR,,0.00,WeatherDisplay:10.37,2013-06-10 19:13:00,
2013-06-10 12:18:00,77.6,43.7,29.91,SSW,202,25.3,25.3,30,0.00,CLR,,0.00,WeatherDisplay:10.37,2013-06-10 19:18:00,
2013-06-10 12:23:00,77.8,42.1,29.91,SW,236,22.0,22.0,28,0.00,CLR,,0.00,WeatherDisplay:10.37,2013-06-10 19:23:00,
2013-06-10 12:28:00,78.3,42.5,29.91,SSW,212,21.9,21.9,28,0.00,CLR,,0.00,WeatherDisplay:10.37,2013-06-10 19:28:00,
2013-06-10 12:33:00,78.7,42.8,29.91,SSW,202,19.6,19.6,28,0.00,CLR,,0.00,WeatherDisplay:10.37,2013-06-10 19:33:00,
2013-06-10 12:39:00,78.4,43.5,29.91,South,189,19.6,19.6,29,0.00,CLR,,0.00,WeatherDisplay:10.37,2013-06-10 19:39:00,
2013-06-10 12:44:00,78.4,41.6,29.91,SSW,211,21.9,21.9,27,0.00,CLR,,0.00,WeatherDisplay:10.37,2013-06-10 19:44:00,
2013-06-10 12:49:00,78.9,43.0,29.91,SW,225,25.3,25.3,28,0.00,CLR,,0.00,WeatherDisplay:10.37,2013-06-10 19:49:00,
2013-06-10 12:54:00,79.5,42.6,29.91,SW,223,20.0,20.0,27,0.00,CLR,,0.00,WeatherDisplay:10.37,2013-06-10 19:54:00,
2013-06-10 12:59:00,79.6,42.7,29.90,SSW,213,19.6,19.6,27,0.00,CLR,,0.00,WeatherDisplay:10.37,2013-06-10 19:59:00,
2013-06-10 13:04:00,79.7,42.8,29.90,SSW,199,25.3,25.3,27,0.00,CLR,,0.00,WeatherDisplay:10.37,2013-06-10 20:04:00,
2013-06-10 13:09:00,79.5,40.6,29.90,SSW,205,25.3,25.3,25,0.00,CLR,,0.00,WeatherDisplay:10.37,2013-06-10 20:09:00,
2013-06-10 13:14:00,79.6,40.7,29.90,SW,216,21.9,21.9,25,0.00,CLR,,0.00,WeatherDisplay:10.37,2013-06-10 20:14:00,
2013-06-10 13:19:00,79.7,41.8,29.90,SSW,210,25.3,25.3,26,0.00,CLR,,0.00,WeatherDisplay:10.37,2013-06-10 20:19:00,
2013-06-10 13:24:00,80.0,41.0,29.89,SW,215,20.7,20.7,25,0.00,CLR,,0.00,WeatherDisplay:10.37,2013-06-10 20:24:00,
2013-06-10 13:29:00,80.9,42.8,29.90,SW,234,25.3,25.3,26,0.00,CLR,,0.00,WeatherDisplay:10.37,2013-06-10 20:29:00,
2013-06-10 13:34:00,80.6,43.5,29.90,SSW,210,19.6,19.6,27,0.00,CLR,,0.00,WeatherDisplay:10.37,2013-06-10 20:34:00,
2013-06-10 13:39:00,80.3,42.3,29.89,South,180,23.0,23.0,26,0.00,CLR,,0.00,WeatherDisplay:10.37,2013-06-10 20:39:00,
2013-06-10 13:44:00,80.7,42.6,29.89,WSW,245,21.9,21.9,26,0.00,CLR,,0.00,WeatherDisplay:10.37,2013-06-10 20:44:00,
2013-06-10 13:49:00,81.4,42.2,29.89,SSW,195,20.7,20.7,25,0.00,CLR,,0.00,WeatherDisplay:10.37,2013-06-10 20:49:00,
2013-06-10 13:54:00,81.9,42.6,29.88,South,188,16.1,16.1,25,0.00,CLR,,0.00,WeatherDisplay:10.37,2013-06-10 20:54:00,
2013-06-10 13:59:00,82.3,44.0,29.88,SW,214,20.0,20.0,26,0.00,CLR,,0.00,WeatherDisplay:10.37,2013-06-10 20:59:00,
2013-06-10 14:04:00,81.6,43.4,29.88,SW,225,19.6,19.6,26,0.00,CLR,,0.00,WeatherDisplay:10.37,2013-06-10 21:04:00,
2013-06-10 14:09:00,82.1,43.8,29.88,SSW,205,21.9,21.9,26,0.00,CLR,,0.00,WeatherDisplay:10.37,2013-06-10 21:09:00,
2013-06-10 14:14:00,81.9,44.6,29.88,SW,223,25.3,25.3,27,0.00,CLR,,0.00,WeatherDisplay:10.37,2013-06-10 21:14:00,
2013-06-10 14:19:00,81.5,44.3,29.88,SSW,213,25.3,25.3,27,0.00,CLR,,0.00,WeatherDisplay:10.37,2013-06-10 21:19:00,
2013-06-10 14:24:00,81.3,45.1,29.88,SW,223,24.2,24.2,28,0.00,CLR,,0.00,WeatherDisplay:10.37,2013-06-10 21:24:00,
2013-06-10 14:29:00,81.2,45.9,29.88,SSW,196,23.0,23.0,29,0.00,CLR,,0.00,WeatherDisplay:10.37,2013-06-10 21:29:00,
2013-06-10 14:34:00,81.4,46.1,29.87,SSW,209,23.0,23.0,29,0.00,CLR,,0.00,WeatherDisplay:10.37,2013-06-10 21:34:00,
2013-06-10 14:39:00,81.8,46.4,29.87,West,267,26.5,26.5,29,0.00,CLR,,0.00,WeatherDisplay:10.37,2013-06-10 21:39:00,
2013-06-10 14:44:00,82.0,46.6,29.87,SW,227,22.0,22.0,29,0.00,CLR,,0.00,WeatherDisplay:10.37,2013-06-10 21:44:00,
2013-06-10 14:49:00,82.1,47.6,29.87,SSW,211,26.5,26.5,30,0.00,CLR,,0.00,WeatherDisplay:10.37,2013-06-10 21:49:00,
2013-06-10 14:54:00,82.7,47.2,29.87,WSW,252,24.2,24.2,29,0.00,CLR,,0.00,WeatherDisplay:10.37,2013-06-10 21:54:00,
2013-06-10 14:59:00,82.5,47.0,29.87,SW,215,28.8,28.8,29,0.00,CLR,,0.00,WeatherDisplay:10.37,2013-06-10 21:59:00,
2013-06-10 15:04:00,81.3,46.9,29.87,SSW,194,29.9,29.9,30,0.00,CLR,,0.00,WeatherDisplay:10.37,2013-06-10 22:04:00,
2013-06-10 15:09:00,81.3,47.8,29.87,SW,221,27.6,27.6,31,0.00,CLR,,0.00,WeatherDisplay:10.37,2013-06-10 22:09:00,
2013-06-10 15:14:00,82.3,47.8,29.87,SW,229,25.3,25.3,30,0.00,CLR,,0.00,WeatherDisplay:10.37,2013-06-10 22:14:00,
2013-06-10 15:19:00,82.3,47.8,29.87,SW,226,25.3,25.3,30,0.00,CLR,,0.00,WeatherDisplay:10.37,2013-06-10 22:19:00,
2013-06-10 15:24:00,82.1,47.6,29.87,SW,217,26.5,26.5,30,0.00,CLR,,0.00,WeatherDisplay:10.37,2013-06-10 22:24:00,
2013-06-10 15:29:00,81.9,48.3,29.87,SW,223,26.0,26.0,31,0.00,CLR,,0.00,WeatherDisplay:10.37,2013-06-10 22:29:00,
2013-06-10 15:34:00,82.1,48.5,29.87,SW,234,24.2,24.2,31,0.00,CLR,,0.00,WeatherDisplay:10.37,2013-06-10 22:34:00,
2013-06-10 15:39:00,82.0,48.4,29.87,SW,217,26.5,26.5,31,0.00,CLR,,0.00,WeatherDisplay:10.37,2013-06-10 22:39:00,
2013-06-10 15:44:00,82.1,48.5,29.87,SW,223,25.3,25.3,31,0.00,CLR,,0.00,WeatherDisplay:10.37,2013-06-10 22:44:00,
2013-06-10 15:49:00,82.0,48.4,29.87,SW,236,33.4,33.4,31,0.00,CLR,,0.00,WeatherDisplay:10.37,2013-06-10 22:49:00,
2013-06-10 15:54:00,81.9,48.3,29.87,SW,235,26.5,26.5,31,0.00,CLR,,0.00,WeatherDisplay:10.37,2013-06-10 22:54:00,
2013-06-10 15:59:00,82.1,48.5,29.87,SSW,202,23.0,23.0,31,0.00,CLR,,0.00,WeatherDisplay:10.37,2013-06-10 22:59:00,
2013-06-10 16:04:00,82.7,48.1,29.87,SSW,196,32.2,32.2,30,0.00,CLR,,0.00,WeatherDisplay:10.37,2013-06-10 23:04:00,
2013-06-10 16:09:00,82.2,48.6,29.87,WSW,243,24.2,24.2,31,0.00,CLR,,0.00,WeatherDisplay:10.37,2013-06-10 23:09:00,
2013-06-10 16:14:00,82.2,47.7,29.88,SW,226,20.7,20.7,30,0.00,CLR,,0.00,WeatherDisplay:10.37,2013-06-10 23:14:00,
2013-06-10 16:19:00,82.3,47.8,29.87,SSW,211,26.5,26.5,30,0.00,CLR,,0.00,WeatherDisplay:10.37,2013-06-10 23:19:00,
2013-06-10 16:24:00,82.4,46.9,29.87,SW,221,26.5,26.5,29,0.00,CLR,,0.00,WeatherDisplay:10.37,2013-06-10 23:24:00,
2013-06-10 16:29:00,82.4,47.8,29.87,SSW,211,27.6,27.6,30,0.00,CLR,,0.00,WeatherDisplay:10.37,2013-06-10 23:29:00,
2013-06-10 16:34:00,81.9,48.3,29.87,SSW,207,19.6,19.6,31,0.00,CLR,,0.00,WeatherDisplay:10.37,2013-06-10 23:34:00,
2013-06-10 16:39:00,81.6,48.0,29.87,WSW,255,25.3,25.3,31,0.00,CLR,,0.00,WeatherDisplay:10.37,2013-06-10 23:39:00,
2013-06-10 16:44:00,81.6,48.9,29.87,WSW,246,19.6,19.6,32,0.00,CLR,,0.00,WeatherDisplay:10.37,2013-06-10 23:44:00,
2013-06-10 16:49:00,81.8,48.2,29.87,SSW,202,24.2,24.2,31,0.00,CLR,,0.00,WeatherDisplay:10.37,2013-06-10 23:49:00,
2013-06-10 16:54:00,82.0,49.2,29.87,SW,233,26.5,26.5,32,0.00,CLR,,0.00,WeatherDisplay:10.37,2013-06-10 23:54:00,
2013-06-10 16:59:00,81.5,47.9,29.87,SW,215,26.5,26.5,31,0.00,CLR,,0.00,WeatherDisplay:10.37,2013-06-10 23:59:00,
2013-06-10 17:04:00,81.9,49.1,29.87,SSW,205,25.3,25.3,32,0.00,CLR,,0.00,WeatherDisplay:10.37,2013-06-11 00:04:00,
2013-06-10 17:09:00,82.9,49.2,29.87,West,268,21.9,21.9,31,0.00,CLR,,0.00,WeatherDisplay:10.37,2013-06-11 00:09:00,
2013-06-10 17:14:00,83.2,48.5,29.87,WSW,240,19.6,19.6,30,0.00,CLR,,0.00,WeatherDisplay:10.37,2013-06-11 00:14:00,
2013-06-10 17:19:00,83.0,39.0,29.87,West,277,18.4,18.4,21,0.00,CLR,,0.00,WeatherDisplay:10.37,2013-06-11 00:19:00,
2013-06-10 17:24:00,83.9,39.8,29.87,WSW,248,25.3,25.3,21,0.00,CLR,,0.00,WeatherDisplay:10.37,2013-06-11 00:24:00,
2013-06-10 17:29:00,83.8,39.7,29.87,West,262,23.0,23.0,21,0.00,CLR,,0.00,WeatherDisplay:10.37,2013-06-11 00:29:00,
2013-06-10 17:34:00,83.8,39.7,29.87,SW,228,21.9,21.9,21,0.00,CLR,,0.00,WeatherDisplay:10.37,2013-06-11 00:34:00,
2013-06-10 17:39:00,83.5,39.4,29.87,West,279,21.9,21.9,21,0.00,CLR,,0.00,WeatherDisplay:10.37,2013-06-11 00:39:00,
2013-06-10 17:44:00,83.6,39.5,29.87,West,263,21.9,21.9,21,0.00,CLR,,0.00,WeatherDisplay:10.37,2013-06-11 00:44:00,
2013-06-10 17:49:00,83.4,39.4,29.87,West,267,27.6,27.6,21,0.00,CLR,,0.00,WeatherDisplay:10.37,2013-06-11 00:49:00,
2013-06-10 17:54:00,83.2,39.2,29.86,West,273,21.9,21.9,21,0.00,CLR,,0.00,WeatherDisplay:10.37,2013-06-11 00:54:00,
2013-06-10 17:59:00,83.0,39.0,29.86,West,268,24.0,24.0,21,0.00,CLR,,0.00,WeatherDisplay:10.37,2013-06-11 00:59:00,
2013-06-10 18:04:00,82.7,38.8,29.86,West,260,24.2,24.2,21,0.00,CLR,,0.00,WeatherDisplay:10.37,2013-06-11 01:04:00,
2013-06-10 18:09:00,83.0,37.8,29.87,West,269,19.6,19.6,20,0.00,CLR,,0.00,WeatherDisplay:10.37,2013-06-11 01:09:00,
2013-06-10 18:14:00,82.7,38.8,29.87,West,272,19.0,19.0,21,0.00,CLR,,0.00,WeatherDisplay:10.37,2013-06-11 01:14:00,
2013-06-10 18:19:00,82.5,38.6,29.87,WSW,250,19.6,19.6,21,0.00,CLR,,0.00,WeatherDisplay:10.37,2013-06-11 01:19:00,
2013-06-10 18:24:00,82.4,38.5,29.87,WSW,258,21.9,21.9,21,0.00,CLR,,0.00,WeatherDisplay:10.37,2013-06-11 01:24:00,
2013-06-10 18:29:00,82.4,38.5,29.87,SW,226,21.0,21.0,21,0.00,CLR,,0.00,WeatherDisplay:10.37,2013-06-11 01:29:00,
2013-06-10 18:34:00,81.9,39.3,29.86,WSW,256,23.0,23.0,22,0.00,CLR,,0.00,WeatherDisplay:10.37,2013-06-11 01:34:00,
2013-06-10 18:39:00,81.9,39.3,29.87,WSW,249,24.2,24.2,22,0.00,CLR,,0.00,WeatherDisplay:10.37,2013-06-11 01:39:00,
2013-06-10 18:44:00,81.2,41.0,29.87,SSW,211,23.0,23.0,24,0.00,CLR,,0.00,WeatherDisplay:10.37,2013-06-11 01:44:00,
2013-06-10 18:49:00,79.9,45.7,29.88,WSW,243,23.0,23.0,30,0.00,CLR,,0.00,WeatherDisplay:10.37,2013-06-11 01:49:00,
2013-06-10 18:54:00,80.1,42.1,29.88,SW,219,20.7,20.7,26,0.00,CLR,,0.00,WeatherDisplay:10.37,2013-06-11 01:54:00,
2013-06-10 18:59:00,79.5,43.5,29.88,SW,232,19.6,19.6,28,0.00,CLR,,0.00,WeatherDisplay:10.37,2013-06-11 01:59:00,
2013-06-10 19:04:00,79.6,42.7,29.88,SW,218,26.5,26.5,27,0.00,CLR,,0.00,WeatherDisplay:10.37,2013-06-11 02:04:00,
2013-06-10 19:09:00,79.6,41.7,29.88,WSW,245,24.2,24.2,26,0.00,CLR,,0.00,WeatherDisplay:10.37,2013-06-11 02:09:00,
2013-06-10 19:14:00,79.5,40.6,29.88,WSW,241,21.0,21.0,25,0.00,CLR,,0.00,WeatherDisplay:10.37,2013-06-11 02:14:00,
2013-06-10 19:19:00,79.5,40.6,29.88,WSW,238,23.0,23.0,25,0.00,CLR,,0.00,WeatherDisplay:10.37,2013-06-11 02:19:00,
2013-06-10 19:24:00,79.1,40.2,29.88,WSW,254,26.5,26.5,25,0.00,CLR,,0.00,WeatherDisplay:10.37,2013-06-11 02:24:00,
2013-06-10 19:29:00,78.7,39.9,29.89,SW,225,23.0,23.0,25,0.00,CLR,,0.00,WeatherDisplay:10.37,2013-06-11 02:29:00,
2013-06-10 19:34:00,78.4,40.7,29.89,West,267,21.9,21.9,26,0.00,CLR,,0.00,WeatherDisplay:10.37,2013-06-11 02:34:00,
2013-06-10 19:39:00,77.9,39.2,29.89,WSW,247,23.0,23.0,25,0.00,CLR,,0.00,WeatherDisplay:10.37,2013-06-11 02:39:00,
2013-06-10 19:44:00,77.5,37.8,29.89,WSW,248,23.0,23.0,24,0.00,CLR,,0.00,WeatherDisplay:10.37,2013-06-11 02:44:00,
2013-06-10 19:49:00,77.2,39.6,29.89,WSW,246,15.0,15.0,26,0.00,CLR,,0.00,WeatherDisplay:10.37,2013-06-11 02:49:00,
2013-06-10 19:54:00,76.7,40.2,29.89,WSW,256,20.7,20.7,27,0.00,CLR,,0.00,WeatherDisplay:10.37,2013-06-11 02:54:00,
2013-06-10 19:59:00,76.4,39.0,29.90,WNW,285,20.7,20.7,26,0.00,CLR,,0.00,WeatherDisplay:10.37,2013-06-11 02:59:00,
2013-06-10 20:04:00,76.1,39.7,29.90,West,279,19.6,19.6,27,0.00,CLR,,0.00,WeatherDisplay:10.37,2013-06-11 03:04:00,
2013-06-10 20:09:00,76.0,41.4,29.90,West,270,24.2,24.2,29,0.00,CLR,,0.00,WeatherDisplay:10.37,2013-06-11 03:09:00,
2013-06-10 20:14:00,75.8,41.3,29.90,West,261,19.6,19.6,29,0.00,CLR,,0.00,WeatherDisplay:10.37,2013-06-11 03:14:00,
2013-06-10 20:19:00,75.7,40.3,29.90,West,273,21.9,21.9,28,0.00,CLR,,0.00,WeatherDisplay:10.37,2013-06-11 03:19:00,
2013-06-10 20:24:00,75.3,41.7,29.90,West,260,20.7,20.7,30,0.00,CLR,,0.00,WeatherDisplay:10.37,2013-06-11 03:24:00,
2013-06-10 20:29:00,75.1,43.2,29.90,West,268,20.0,20.0,32,0.00,CLR,,0.00,WeatherDisplay:10.37,2013-06-11 03:29:00,
2013-06-10 20:34:00,74.5,44.3,29.90,West,265,20.7,20.7,34,0.00,CLR,,0.00,WeatherDisplay:10.37,2013-06-11 03:34:00,
2013-06-10 20:39:00,74.2,44.8,29.91,West,265,24.2,24.2,35,0.00,CLR,,0.00,WeatherDisplay:10.37,2013-06-11 03:39:00,
2013-06-10 20:44:00,74.2,46.2,29.91,West,279,20.7,20.7,37,0.00,CLR,,0.00,WeatherDisplay:10.37,2013-06-11 03:44:00,
2013-06-10 20:49:00,74.0,46.1,29.91,West,271,19.6,19.6,37,0.00,CLR,,0.00,WeatherDisplay:10.37,2013-06-11 03:49:00,
2013-06-10 20:54:00,73.9,46.7,29.91,WNW,290,21.9,21.9,38,0.00,CLR,,0.00,WeatherDisplay:10.37,2013-06-11 03:54:00,
2013-06-10 20:59:00,73.8,46.6,29.91,West,274,24.0,24.0,38,0.00,CLR,,0.00,WeatherDisplay:10.37,2013-06-11 03:59:00,
2013-06-10 21:01:00,73.9,46.7,29.91,WSW,249,18.4,18.4,38,0.00,CLR,,0.00,WeatherDisplay:10.37,2013-06-11 04:01:00,
2013-06-10 21:02:00,73.9,46.7,29.91,West,267,18.4,18.4,38,0.00,CLR,,0.00,WeatherDisplay:10.37,2013-06-11 04:02:00,
2013-06-10 21:03:00,73.8,46.6,29.91,West,264,18.4,18.4,38,0.00,CLR,,0.00,WeatherDisplay:10.37,2013-06-11 04:03:00,
2013-06-10 21:08:00,73.6,46.4,29.91,WNW,289,19.6,19.6,38,0.00,CLR,,0.00,WeatherDisplay:10.37,2013-06-11 04:08:00,
2013-06-10 21:13:00,73.4,46.2,29.91,WSW,257,17.0,17.0,38,0.00,CLR,,0.00,WeatherDisplay:10.37,2013-06-11 04:13:00,
2013-06-10 21:18:00,73.2,46.8,29.92,West,275,18.4,18.4,39,0.00,CLR,,0.00,WeatherDisplay:10.37,2013-06-11 04:18:00,
2013-06-10 21:23:00,73.0,47.2,29.92,West,274,16.1,16.1,40,0.00,CLR,,0.00,WeatherDisplay:10.37,2013-06-11 04:23:00,
2013-06-10 21:28:00,73.0,47.2,29.92,West,275,13.8,13.8,40,0.00,CLR,,0.00,WeatherDisplay:10.37,2013-06-11 04:28:00,
2013-06-10 21:33:00,72.8,47.1,29.92,West,264,13.8,13.8,40,0.00,CLR,,0.00,WeatherDisplay:10.37,2013-06-11 04:33:00,
2013-06-10 21:38:00,72.7,47.0,29.92,West,267,16.1,16.1,40,0.00,CLR,,0.00,WeatherDisplay:10.37,2013-06-11 04:38:00,
2013-06-10 21:43:00,72.8,46.4,29.92,WSW,245,15.0,15.0,39,0.00,CLR,,0.00,WeatherDisplay:10.37,2013-06-11 04:43:00,
2013-06-10 21:48:00,72.3,46.6,29.92,WSW,242,10.4,10.4,40,0.00,CLR,,0.00,WeatherDisplay:10.37,2013-06-11 04:48:00,
2013-06-10 21:53:00,72.0,45.7,29.92,WSW,249,4.6,4.6,39,0.00,CLR,,0.00,WeatherDisplay:10.37,2013-06-11 04:53:00,
2013-06-10 21:58:00,71.9,45.6,29.92,WSW,246,4.6,4.6,39,0.00,CLR,,0.00,WeatherDisplay:10.37,2013-06-11 04:58:00,
2013-06-10 22:03:00,71.7,45.4,29.92,WSW,240,11.5,11.5,39,0.00,CLR,,0.00,WeatherDisplay:10.37,2013-06-11 05:03:00,
2013-06-10 22:08:00,71.6,44.6,29.92,WSW,242,9.2,9.2,38,0.00,CLR,,0.00,WeatherDisplay:10.37,2013-06-11 05:08:00,
2013-06-10 22:13:00,71.5,45.9,29.92,WSW,258,12.0,12.0,40,0.00,CLR,,0.00,WeatherDisplay:10.37,2013-06-11 05:13:00,
2013-06-10 22:18:00,71.1,46.2,29.92,WSW,256,11.5,11.5,41,0.00,CLR,,0.00,WeatherDisplay:10.37,2013-06-11 05:18:00,
2013-06-10 22:23:00,70.6,45.7,29.93,WSW,253,6.9,6.9,41,0.00,CLR,,0.00,WeatherDisplay:10.37,2013-06-11 05:23:00,
2013-06-10 22:28:00,70.2,45.4,29.93,WSW,253,3.5,3.5,41,0.00,CLR,,0.00,WeatherDisplay:10.37,2013-06-11 05:28:00,
2013-06-10 22:33:00,70.0,45.2,29.93,WSW,253,2.3,2.3,41,0.00,CLR,,0.00,WeatherDisplay:10.37,2013-06-11 05:33:00,
2013-06-10 22:38:00,70.0,45.2,29.93,WSW,253,3.5,3.5,41,0.00,CLR,,0.00,WeatherDisplay:10.37,2013-06-11 05:38:00,
2013-06-10 22:43:00,69.9,45.1,29.93,WSW,253,4.0,4.0,41,0.00,CLR,,0.00,WeatherDisplay:10.37,2013-06-11 05:43:00,
2013-06-10 22:48:00,69.7,45.6,29.93,WSW,253,2.3,2.3,42,0.00,CLR,,0.00,WeatherDisplay:10.37,2013-06-11 05:48:00,
2013-06-10 22:53:00,69.3,45.2,29.93,WSW,253,3.5,3.5,42,0.00,CLR,,0.00,WeatherDisplay:10.37,2013-06-11 05:53:00,
2013-06-10 22:58:00,68.8,44.8,29.93,WSW,250,4.6,4.6,42,0.00,CLR,,0.00,WeatherDisplay:10.37,2013-06-11 05:58:00,
2013-06-10 23:03:00,68.7,44.0,29.93,SW,236,3.5,3.5,41,0.00,CLR,,0.00,WeatherDisplay:10.37,2013-06-11 06:03:00,
2013-06-10 23:08:00,68.8,44.8,29.92,WSW,250,9.2,9.2,42,0.00,CLR,,0.00,WeatherDisplay:10.37,2013-06-11 06:08:00,
2013-06-10 23:13:00,69.0,44.9,29.92,WSW,245,5.0,5.0,42,0.00,CLR,,0.00,WeatherDisplay:10.37,2013-06-11 06:13:00,
2013-06-10 23:18:00,68.9,44.9,29.92,WSW,257,6.9,6.9,42,0.00,CLR,,0.00,WeatherDisplay:10.37,2013-06-11 06:18:00,
2013-06-10 23:23:00,69.0,44.9,29.92,WNW,284,5.8,5.8,42,0.00,CLR,,0.00,WeatherDisplay:10.37,2013-06-11 06:23:00,
2013-06-10 23:28:00,69.1,44.4,29.93,West,281,4.6,4.6,41,0.00,CLR,,0.00,WeatherDisplay:10.37,2013-06-11 06:28:00,
2013-06-10 23:33:00,69.4,44.0,29.93,West,281,5.0,5.0,40,0.00,CLR,,0.00,WeatherDisplay:10.37,2013-06-11 06:33:00,
2013-06-10 23:38:00,69.6,44.2,29.93,WNW,298,6.0,6.0,40,0.00,CLR,,0.00,WeatherDisplay:10.37,2013-06-11 06:38:00,
2013-06-10 23:43:00,69.5,44.1,29.93,WNW,297,6.0,6.0,40,0.00,CLR,,0.00,WeatherDisplay:10.37,2013-06-11 06:43:00,
2013-06-10 23:48:00,69.4,44.0,29.92,WNW,297,4.6,4.6,40,0.00,CLR,,0.00,WeatherDisplay:10.37,2013-06-11 06:48:00,
2013-06-10 23:53:00,69.0,43.7,29.93,WSW,237,5.0,5.0,40,0.00,CLR,,0.00,WeatherDisplay:10.37,2013-06-11 06:53:00,
2013-06-10 23:58:00,67.9,43.3,29.92,SW,233,4.6,4.6,41,0.00,CLR,,0.00,WeatherDisplay:10.37,2013-06-11 06:58:00,